Location: Dampvalley
(47.9094°N, 6.1967°E)
Time: 01:29:26
(UTC+00:00)

SO-50 - Pass Details

Date: 02 December 2021
Orbit: 595 x 689 km, 64.6° (Epoch: 24 January)

Event Time Altitude Azimuth Distance (km) Brightness Sun altitude
Rises 17:05:57 0° 319° (NW) 3,018 ? -13.2°
Reaches altitude 10° 17:08:16 10° 317° (NW) 2,113 ? -13.5°
Maximum altitude 17:13:04 69° 236° (SW) 735 ? -14.3°
Drops below altitude 10° 17:17:54 10° 153° (SSE) 2,132 ? -15.1°
Sets 17:20:14 0° 151° (SSE) 3,047 ? -15.4°
